Wetterdaten: aktuell Sonntag, 21.04.2019 14:40
Datum Zeit Temp. A. Temp. A. min Feuchte A. Luftdruck Regen Wind Richtung Richtung Sonnenschein Solar Taupunkt Windchill Windben
21.04.2019 14:40 24,5 C 24,5 C 19 % 1024,5 hPa 0,0 l/m 8,0 km/h (2 Bft) O 90 0 min 0 W/m -0,6 C 24,5 C 14,5 km/h (3 Bft)
21.04.2019 14:35 24,6 C 24,6 C 19 % 1024,6 hPa 0,0 l/m 6,3 km/h (2 Bft) N-NO 19 0 min 0 W/m -0,6 C 24,6 C 14,5 km/h (3 Bft)
21.04.2019 14:30 24,6 C 24,5 C 19 % 1024,7 hPa 0,0 l/m 7,3 km/h (2 Bft) NO 37 0 min 0 W/m -0,6 C 24,6 C 19,3 km/h (3 Bft)
21.04.2019 14:25 24,5 C 24,4 C 19 % 1024,6 hPa 0,0 l/m 8,4 km/h (2 Bft) S 187 0 min 0 W/m -0,6 C 24,5 C 16,1 km/h (3 Bft)
21.04.2019 14:20 24,4 C 24,4 C 18 % 1024,8 hPa 0,0 l/m 5,8 km/h (2 Bft) S-SO 157 0 min 0 W/m -1,5 C 24,4 C 14,5 km/h (3 Bft)
21.04.2019 14:15 24,5 C 24,5 C 18 % 1024,8 hPa 0,0 l/m 8,3 km/h (2 Bft) O-NO 69 0 min 0 W/m -1,4 C 24,5 C 14,5 km/h (3 Bft)
21.04.2019 14:10 24,6 C 24,5 C 18 % 1024,9 hPa 0,0 l/m 11,7 km/h (2 Bft) O-NO 78 0 min 0 W/m -1,3 C 24,6 C 22,5 km/h (4 Bft)
21.04.2019 14:05 24,7 C 24,7 C 17 % 1024,9 hPa 0,0 l/m 12,8 km/h (3 Bft) O-NO 74 0 min 0 W/m -2,0 C 24,7 C 25,7 km/h (4 Bft)
21.04.2019 14:00 24,8 C 24,8 C 19 % 1024,9 hPa 0,0 l/m 7,4 km/h (2 Bft) O-NO 65 0 min 0 W/m -0,4 C 24,8 C 14,5 km/h (3 Bft)
21.04.2019 13:55 24,9 C 24,9 C 19 % 1024,9 hPa 0,0 l/m 7,4 km/h (2 Bft) O 91 0 min 0 W/m -0,3 C 24,9 C 17,7 km/h (3 Bft)
21.04.2019 13:50 25,0 C 24,9 C 19 % 1025,0 hPa 0,0 l/m 4,6 km/h (1 Bft) O-SO 114 0 min 0 W/m -0,2 C 25,0 C 11,3 km/h (2 Bft)
21.04.2019 13:45 24,9 C 24,9 C 20 % 1025,0 hPa 0,0 l/m 3,9 km/h (1 Bft) SO 144 0 min 0 W/m 0,4 C 24,9 C 11,3 km/h (2 Bft)
21.04.2019 13:40 24,9 C 24,9 C 21 % 1025,1 hPa 0,0 l/m 9,3 km/h (2 Bft) O 95 0 min 0 W/m 1,1 C 24,9 C 24,1 km/h (4 Bft)
21.04.2019 13:35 25,1 C 25,1 C 19 % 1025,2 hPa 0,0 l/m 12,8 km/h (3 Bft) NO 44 0 min 0 W/m -0,1 C 25,1 C 25,7 km/h (4 Bft)
21.04.2019 13:30 25,2 C 25,2 C 20 % 1025,3 hPa 0,0 l/m 9,1 km/h (2 Bft) N-NO 31 0 min 0 W/m 0,6 C 25,2 C 16,1 km/h (3 Bft)
21.04.2019 13:25 25,2 C 25,2 C 19 % 1025,3 hPa 0,0 l/m 12,4 km/h (3 Bft) O 85 0 min 0 W/m -0,1 C 25,2 C 24,1 km/h (4 Bft)
21.04.2019 13:20 25,2 C 25,1 C 20 % 1025,3 hPa 0,0 l/m 8,0 km/h (2 Bft) O 94 0 min 0 W/m 0,6 C 25,2 C 16,1 km/h (3 Bft)
21.04.2019 13:15 25,2 C 25,1 C 19 % 1025,5 hPa 0,0 l/m 9,3 km/h (2 Bft) O-NO 76 0 min 0 W/m -0,1 C 25,2 C 19,3 km/h (3 Bft)
21.04.2019 13:10 25,1 C 24,8 C 21 % 1025,5 hPa 0,0 l/m 5,4 km/h (1 Bft) O 80 0 min 0 W/m 1,2 C 25,1 C 16,1 km/h (3 Bft)
21.04.2019 13:05 24,8 C 24,7 C 20 % 1025,6 hPa 0,0 l/m 6,0 km/h (2 Bft) S-SW 205 0 min 0 W/m 0,3 C 24,8 C 12,9 km/h (3 Bft)
21.04.2019 13:00 24,7 C 24,6 C 21 % 1025,7 hPa 0,0 l/m 9,6 km/h (2 Bft) S 173 0 min 0 W/m 0,9 C 24,7 C 17,7 km/h (3 Bft)
21.04.2019 12:55 25,1 C 25,1 C 19 % 1025,8 hPa 0,0 l/m 11,7 km/h (2 Bft) O-SO 119 0 min 0 W/m -0,1 C 25,1 C 22,5 km/h (4 Bft)
21.04.2019 12:50 25,2 C 25,0 C 20 % 1025,8 hPa 0,0 l/m 9,7 km/h (2 Bft) SO 134 0 min 0 W/m 0,6 C 25,2 C 19,3 km/h (3 Bft)
21.04.2019 12:45 25,0 C 24,8 C 22 % 1025,9 hPa 0,0 l/m 5,4 km/h (1 Bft) O-NO 76 0 min 0 W/m 1,8 C 25,0 C 11,3 km/h (2 Bft)
21.04.2019 12:40 24,9 C 24,7 C 21 % 1025,9 hPa 0,0 l/m 6,0 km/h (2 Bft) S-SO 159 0 min 0 W/m 1,1 C 24,9 C 14,5 km/h (3 Bft)
21.04.2019 12:35 24,7 C 24,4 C 24 % 1026,0 hPa 0,0 l/m 5,3 km/h (1 Bft) S-SO 166 0 min 0 W/m 2,8 C 24,7 C 9,7 km/h (2 Bft)
21.04.2019 12:30 24,4 C 24,3 C 23 % 1026,0 hPa 0,0 l/m 7,8 km/h (2 Bft) S-SO 165 0 min 0 W/m 1,9 C 24,4 C 14,5 km/h (3 Bft)
21.04.2019 12:25 24,7 C 24,7 C 20 % 1026,2 hPa 0,0 l/m 7,9 km/h (2 Bft) S-SO 153 0 min 0 W/m 0,2 C 24,7 C 17,7 km/h (3 Bft)
21.04.2019 12:20 24,7 C 24,6 C 23 % 1026,2 hPa 0,0 l/m 6,0 km/h (2 Bft) S-SO 167 0 min 0 W/m 2,2 C 24,7 C 19,3 km/h (3 Bft)
21.04.2019 12:15 24,6 C 24,1 C 24 % 1026,3 hPa 0,0 l/m 9,0 km/h (2 Bft) SO 146 0 min 0 W/m 2,7 C 24,6 C 16,1 km/h (3 Bft)
21.04.2019 12:10 24,1 C 23,8 C 21 % 1026,4 hPa 0,0 l/m 9,4 km/h (2 Bft) O 85 0 min 0 W/m 0,4 C 24,1 C 19,3 km/h (3 Bft)
21.04.2019 12:05 23,9 C 23,7 C 21 % 1026,5 hPa 0,0 l/m 9,0 km/h (2 Bft) SO 126 0 min 0 W/m 0,2 C 23,9 C 27,4 km/h (4 Bft)
21.04.2019 12:00 23,7 C 23,7 C 20 % 1026,6 hPa 0,0 l/m 12,5 km/h (3 Bft) O 92 0 min 0 W/m -0,6 C 23,7 C 25,7 km/h (4 Bft)
21.04.2019 11:55 24,1 C 24,1 C 21 % 1026,7 hPa 0,0 l/m 12,6 km/h (3 Bft) O-NO 69 0 min 0 W/m 0,4 C 24,1 C 20,9 km/h (4 Bft)
21.04.2019 11:50 24,4 C 23,8 C 23 % 1026,8 hPa 0,0 l/m 8,7 km/h (2 Bft) O 84 0 min 0 W/m 1,9 C 24,4 C 20,9 km/h (4 Bft)
21.04.2019 11:45 23,8 C 23,6 C 23 % 1026,7 hPa 0,0 l/m 6,8 km/h (2 Bft) O 92 0 min 0 W/m 1,4 C 23,8 C 19,3 km/h (3 Bft)
21.04.2019 11:40 23,6 C 23,5 C 24 % 1026,8 hPa 0,0 l/m 8,0 km/h (2 Bft) O 100 0 min 0 W/m 1,8 C 23,6 C 17,7 km/h (3 Bft)
21.04.2019 11:35 23,7 C 23,0 C 27 % 1026,9 hPa 0,0 l/m 5,9 km/h (2 Bft) S-SO 164 0 min 0 W/m 3,6 C 23,7 C 12,9 km/h (3 Bft)
21.04.2019 11:30 23,0 C 22,3 C 27 % 1027,0 hPa 0,0 l/m 6,1 km/h (2 Bft) O-SO 104 0 min 0 W/m 3,0 C 23,0 C 12,9 km/h (3 Bft)
21.04.2019 11:25 22,3 C 21,7 C 26 % 1027,0 hPa 0,0 l/m 3,0 km/h (1 Bft) SO 128 0 min 0 W/m 1,9 C 22,3 C 12,9 km/h (3 Bft)
21.04.2019 11:20 21,7 C 20,8 C 30 % 1027,0 hPa 0,0 l/m 6,9 km/h (2 Bft) SO 142 0 min 0 W/m 3,4 C 21,7 C 14,5 km/h (3 Bft)
21.04.2019 11:15 20,8 C 20,4 C 30 % 1027,0 hPa 0,0 l/m 4,6 km/h (1 Bft) O-NO 72 0 min 0 W/m 2,6 C 20,8 C 12,9 km/h (3 Bft)
21.04.2019 11:10 20,4 C 20,3 C 33 % 1027,1 hPa 0,0 l/m 3,7 km/h (1 Bft) SO 134 0 min 0 W/m 3,6 C 20,4 C 14,5 km/h (3 Bft)
21.04.2019 11:05 20,4 C 20,4 C 34 % 1027,2 hPa 0,0 l/m 2,7 km/h (1 Bft) S-SO 156 0 min 0 W/m 4,0 C 20,4 C 8,0 km/h (2 Bft)
21.04.2019 11:00 20,5 C 20,5 C 36 % 1027,3 hPa 0,0 l/m 1,7 km/h (1 Bft) SW 222 0 min 0 W/m 4,9 C 20,5 C 4,8 km/h (1 Bft)
21.04.2019 10:55 20,6 C 20,6 C 33 % 1027,3 hPa 0,0 l/m 4,5 km/h (1 Bft) W 271 0 min 0 W/m 3,8 C 20,6 C 8,0 km/h (2 Bft)
21.04.2019 10:50 20,9 C 20,9 C 36 % 1027,3 hPa 0,0 l/m 4,2 km/h (1 Bft) NW 314 0 min 0 W/m 5,3 C 20,9 C 8,0 km/h (2 Bft)
21.04.2019 10:45 20,9 C 20,8 C 36 % 1027,4 hPa 0,0 l/m 3,1 km/h (1 Bft) W-NW 289 0 min 0 W/m 5,3 C 20,9 C 6,4 km/h (2 Bft)
21.04.2019 10:40 20,8 C 20,6 C 40 % 1027,5 hPa 0,0 l/m 3,3 km/h (1 Bft) NW 321 0 min 0 W/m 6,7 C 20,8 C 6,4 km/h (2 Bft)
21.04.2019 10:35 20,6 C 20,3 C 39 % 1027,4 hPa 0,0 l/m 3,5 km/h (1 Bft) N-NW 335 0 min 0 W/m 6,2 C 20,6 C 8,0 km/h (2 Bft)
21.04.2019 10:30 20,3 C 19,6 C 41 % 1027,5 hPa 0,0 l/m 2,8 km/h (1 Bft) W 260 0 min 0 W/m 6,6 C 20,3 C 4,8 km/h (1 Bft)
21.04.2019 10:25 19,6 C 18,7 C 47 % 1027,5 hPa 0,0 l/m 2,1 km/h (1 Bft) S-SW 192 0 min 0 W/m 8,0 C 19,6 C 4,8 km/h (1 Bft)
21.04.2019 10:20 18,7 C 17,7 C 47 % 1027,6 hPa 0,0 l/m 2,8 km/h (1 Bft) S-SW 192 0 min 0 W/m 7,2 C 18,7 C 4,8 km/h (1 Bft)
21.04.2019 10:15 17,7 C 17,7 C 48 % 1027,7 hPa 0,0 l/m 3,6 km/h (1 Bft) S 184 0 min 0 W/m 6,6 C 17,7 C 8,0 km/h (2 Bft)
21.04.2019 10:10 18,1 C 18,1 C 49 % 1027,7 hPa 0,0 l/m 4,7 km/h (1 Bft) S-SW 202 0 min 0 W/m 7,2 C 18,1 C 8,0 km/h (2 Bft)
21.04.2019 10:05 18,2 C 18,2 C 49 % 1027,8 hPa 0,0 l/m 4,6 km/h (1 Bft) S-SO 150 0 min 0 W/m 7,3 C 18,2 C 9,7 km/h (2 Bft)
21.04.2019 10:00 18,2 C 17,9 C 50 % 1027,8 hPa 0,0 l/m 3,9 km/h (1 Bft) S-SW 192 0 min 0 W/m 7,6 C 18,2 C 8,0 km/h (2 Bft)
21.04.2019 09:55 17,9 C 17,7 C 49 % 1027,9 hPa 0,0 l/m 4,6 km/h (1 Bft) S 171 0 min 0 W/m 7,0 C 17,9 C 8,0 km/h (2 Bft)
21.04.2019 09:50 17,7 C 17,6 C 51 % 1027,9 hPa 0,0 l/m 4,2 km/h (1 Bft) S 181 0 min 0 W/m 7,4 C 17,7 C 6,4 km/h (2 Bft)
21.04.2019 09:45 17,6 C 17,2 C 50 % 1027,9 hPa 0,0 l/m 3,1 km/h (1 Bft) S-SO 160 0 min 0 W/m 7,1 C 17,6 C 6,4 km/h (2 Bft)
21.04.2019 09:40 17,2 C 16,9 C 51 % 1027,9 hPa 0,0 l/m 3,5 km/h (1 Bft) S-SO 158 0 min 0 W/m 7,0 C 17,2 C 8,0 km/h (2 Bft)
21.04.2019 09:35 16,9 C 16,5 C 53 % 1027,9 hPa 0,0 l/m 2,3 km/h (1 Bft) S-SW 205 0 min 0 W/m 7,3 C 16,9 C 4,8 km/h (1 Bft)
21.04.2019 09:30 16,6 C 15,9 C 51 % 1027,9 hPa 0,0 l/m 3,5 km/h (1 Bft) S-SW 205 0 min 0 W/m 6,4 C 16,6 C 6,4 km/h (2 Bft)
21.04.2019 09:25 15,9 C 15,6 C 51 % 1027,9 hPa 0,0 l/m 3,6 km/h (1 Bft) S-SW 210 0 min 0 W/m 5,8 C 15,9 C 8,0 km/h (2 Bft)
21.04.2019 09:20 15,6 C 15,1 C 53 % 1027,9 hPa 0,0 l/m 3,3 km/h (1 Bft) S 173 0 min 0 W/m 6,1 C 15,6 C 8,0 km/h (2 Bft)
21.04.2019 09:15 15,1 C 14,9 C 54 % 1028,0 hPa 0,0 l/m 2,9 km/h (1 Bft) S 173 0 min 0 W/m 5,9 C 15,1 C 4,8 km/h (1 Bft)
21.04.2019 09:10 14,9 C 14,6 C 55 % 1028,0 hPa 0,0 l/m 2,2 km/h (1 Bft) S 173 0 min 0 W/m 5,9 C 14,9 C 4,8 km/h (1 Bft)
21.04.2019 09:05 14,6 C 14,2 C 57 % 1028,1 hPa 0,0 l/m 3,2 km/h (1 Bft) S 173 0 min 0 W/m 6,2 C 14,6 C 4,8 km/h (1 Bft)
21.04.2019 09:00 14,2 C 13,8 C 55 % 1028,1 hPa 0,0 l/m 3,0 km/h (1 Bft) S 173 0 min 0 W/m 5,3 C 14,2 C 4,8 km/h (1 Bft)
21.04.2019 08:55 13,8 C 13,7 C 55 % 1028,1 hPa 0,0 l/m 3,0 km/h (1 Bft) S 178 0 min 0 W/m 4,9 C 13,8 C 4,8 km/h (1 Bft)
21.04.2019 08:50 13,7 C 13,2 C 57 % 1028,1 hPa 0,0 l/m 2,4 km/h (1 Bft) S 185 0 min 0 W/m 5,3 C 13,7 C 4,8 km/h (1 Bft)
21.04.2019 08:45 13,2 C 13,1 C 57 % 1028,1 hPa 0,0 l/m 3,3 km/h (1 Bft) S 185 0 min 0 W/m 4,9 C 13,2 C 4,8 km/h (1 Bft)
21.04.2019 08:40 13,1 C 12,8 C 57 % 1028,2 hPa 0,0 l/m 3,7 km/h (1 Bft) S 188 0 min 0 W/m 4,8 C 13,1 C 8,0 km/h (2 Bft)
21.04.2019 08:35 12,8 C 12,5 C 60 % 1028,1 hPa 0,0 l/m 3,3 km/h (1 Bft) S-SW 194 0 min 0 W/m 5,2 C 12,8 C 6,4 km/h (2 Bft)
21.04.2019 08:30 12,5 C 11,7 C 60 % 1028,2 hPa 0,0 l/m 4,0 km/h (1 Bft) S-SW 209 0 min 0 W/m 5,0 C 12,5 C 8,0 km/h (2 Bft)
21.04.2019 08:25 11,7 C 10,6 C 64 % 1028,2 hPa 0,0 l/m 3,8 km/h (1 Bft) S-SW 192 0 min 0 W/m 5,1 C 11,7 C 6,4 km/h (2 Bft)
21.04.2019 08:20 10,6 C 9,0 C 67 % 1028,2 hPa 0,0 l/m 2,9 km/h (1 Bft) S 178 0 min 0 W/m 4,7 C 10,6 C 4,8 km/h (1 Bft)
21.04.2019 08:15 9,0 C 7,3 C 73 % 1028,2 hPa 0,0 l/m 2,7 km/h (1 Bft) S 184 0 min 0 W/m 4,4 C 9,0 C 4,8 km/h (1 Bft)
21.04.2019 08:10 7,3 C 6,8 C 76 % 1028,2 hPa 0,0 l/m 1,7 km/h (1 Bft) S 184 0 min 0 W/m 3,4 C 7,3 C 3,2 km/h (1 Bft)
21.04.2019 08:05 6,8 C 6,4 C 76 % 1028,2 hPa 0,0 l/m 1,0 km/h (0 Bft) S 184 0 min 0 W/m 2,9 C 6,8 C 3,2 km/h (1 Bft)
21.04.2019 08:00 6,4 C 6,2 C 76 % 1028,2 hPa 0,0 l/m 1,0 km/h (0 Bft) S 184 0 min 0 W/m 2,5 C 6,4 C 3,2 km/h (1 Bft)
21.04.2019 07:55 6,2 C 6,0 C 76 % 1028,3 hPa 0,0 l/m 0,9 km/h (0 Bft) S 184 0 min 0 W/m 2,3 C 6,2 C 1,6 km/h (1 Bft)
21.04.2019 07:50 6,1 C 5,9 C 77 % 1028,3 hPa 0,0 l/m 0,4 km/h (0 Bft) S 184 0 min 0 W/m 2,4 C 6,1 C 1,6 km/h (1 Bft)
21.04.2019 07:45 5,9 C 5,7 C 77 % 1028,4 hPa 0,0 l/m 0,9 km/h (0 Bft) S 184 0 min 0 W/m 2,2 C 5,9 C 3,2 km/h (1 Bft)
21.04.2019 07:40 5,7 C 5,6 C 77 % 1028,4 hPa 0,0 l/m 1,6 km/h (1 Bft) S 184 0 min 0 W/m 2,0 C 5,7 C 3,2 km/h (1 Bft)
21.04.2019 07:35 5,6 C 5,4 C 78 % 1028,4 hPa 0,0 l/m 1,4 km/h (1 Bft) S 184 0 min 0 W/m 2,1 C 5,6 C 3,2 km/h (1 Bft)
21.04.2019 07:30 5,4 C 5,3 C 78 % 1028,4 hPa 0,0 l/m 2,4 km/h (1 Bft) S 186 0 min 0 W/m 1,9 C 5,4 C 4,8 km/h (1 Bft)
21.04.2019 07:25 5,3 C 5,2 C 78 % 1028,4 hPa 0,0 l/m 1,7 km/h (1 Bft) S 189 0 min 0 W/m 1,8 C 5,3 C 3,2 km/h (1 Bft)
21.04.2019 07:20 5,2 C 5,0 C 79 % 1028,4 hPa 0,0 l/m 2,5 km/h (1 Bft) S 189 0 min 0 W/m 1,9 C 5,2 C 4,8 km/h (1 Bft)
21.04.2019 07:15 5,0 C 4,9 C 78 % 1028,4 hPa 0,0 l/m 2,4 km/h (1 Bft) S-SW 208 0 min 0 W/m 1,5 C 5,0 C 3,2 km/h (1 Bft)
21.04.2019 07:10 4,9 C 4,8 C 78 % 1028,4 hPa 0,0 l/m 1,7 km/h (1 Bft) S-SW 208 0 min 0 W/m 1,4 C 4,9 C 3,2 km/h (1 Bft)
21.04.2019 07:05 4,8 C 4,8 C 78 % 1028,4 hPa 0,0 l/m 1,1 km/h (1 Bft) S-SW 208 0 min 0 W/m 1,3 C 4,8 C 3,2 km/h (1 Bft)
21.04.2019 07:00 4,8 C 4,8 C 78 % 1028,4 hPa 0,0 l/m 0,0 km/h (0 Bft) S-SW 207 0 min 0 W/m 1,3 C 4,8 C 0,0 km/h (0 Bft)
21.04.2019 06:55 4,8 C 4,8 C 78 % 1028,4 hPa 0,0 l/m 0,3 km/h (0 Bft) S-SW 208 0 min 0 W/m 1,3 C 4,8 C 1,6 km/h (1 Bft)
21.04.2019 06:50 4,8 C 4,8 C 78 % 1028,4 hPa 0,0 l/m 0,3 km/h (0 Bft) S-SW 207 0 min 0 W/m 1,3 C 4,8 C 1,6 km/h (1 Bft)
21.04.2019 06:45 4,9 C 4,9 C 78 % 1028,4 hPa 0,0 l/m 0,7 km/h (0 Bft) S-SW 207 0 min 0 W/m 1,4 C 4,9 C 1,6 km/h (1 Bft)
21.04.2019 06:40 4,9 C 4,9 C 78 % 1028,5 hPa 0,0 l/m 0,7 km/h (0 Bft) S-SW 207 0 min 0 W/m 1,4 C 4,9 C 1,6 km/h (1 Bft)
21.04.2019 06:35 4,9 C 4,9 C 77 % 1028,6 hPa 0,0 l/m 1,0 km/h (0 Bft) S-SW 207 0 min 0 W/m 1,2 C 4,9 C 3,2 km/h (1 Bft)
21.04.2019 06:30 5,1 C 5,0 C 77 % 1028,5 hPa 0,0 l/m 2,2 km/h (1 Bft) S-SW 207 0 min 0 W/m 1,4 C 5,1 C 3,2 km/h (1 Bft)
21.04.2019 06:25 5,1 C 5,1 C 78 % 1028,4 hPa 0,0 l/m 2,0 km/h (1 Bft) S-SW 208 0 min 0 W/m 1,6 C 5,1 C 3,2 km/h (1 Bft)
21.04.2019 06:20 5,2 C 5,1 C 77 % 1028,4 hPa 0,0 l/m 0,0 km/h (0 Bft) S-SW 208 0 min 0 W/m 1,5 C 5,2 C 0,0 km/h (0 Bft)
21.04.2019 06:15 5,2 C 5,2 C 77 % 1028,4 hPa 0,0 l/m 0,0 km/h (0 Bft) S-SW 208 0 min 0 W/m 1,5 C 5,2 C 0,0 km/h (0 Bft)
21.04.2019 06:10 5,2 C 5,2 C 76 % 1028,4 hPa 0,0 l/m 0,0 km/h (0 Bft) S-SW 208 0 min 0 W/m 1,3 C 5,2 C 0,0 km/h (0 Bft)
21.04.2019 06:05 5,3 C 5,3 C 76 % 1028,4 hPa 0,0 l/m 0,0 km/h (0 Bft) S-SW 208 0 min 0 W/m 1,4 C 5,3 C 0,0 km/h (0 Bft)
21.04.2019 06:00 5,4 C 5,4 C 76 % 1028,4 hPa 0,0 l/m 0,0 km/h (0 Bft) S-SW 208 0 min 0 W/m 1,5 C 5,4 C 0,0 km/h (0 Bft)
21.04.2019 05:55 5,4 C 5,4 C 76 % 1028,4 hPa 0,0 l/m 0,0 km/h (0 Bft) S-SW 208 0 min 0 W/m 1,5 C 5,4 C 0,0 km/h (0 Bft)
21.04.2019 05:50 5,4 C 5,4 C 76 % 1028,5 hPa 0,0 l/m 0,0 km/h (0 Bft) S-SW 208 0 min 0 W/m 1,5 C 5,4 C 0,0 km/h (0 Bft)
21.04.2019 05:45 5,5 C 5,5 C 76 % 1028,5 hPa 0,0 l/m 0,0 km/h (0 Bft) S-SW 208 0 min 0 W/m 1,6 C 5,5 C 0,0 km/h (0 Bft)
21.04.2019 05:40 5,6 C 5,6 C 75 % 1028,6 hPa 0,0 l/m 0,0 km/h (0 Bft) S-SW 208 0 min 0 W/m 1,5 C 5,6 C 0,0 km/h (0 Bft)
21.04.2019 05:35 5,6 C 5,6 C 75 % 1028,6 hPa 0,0 l/m 0,0 km/h (0 Bft) S-SW 208 0 min 0 W/m 1,5 C 5,6 C 0,0 km/h (0 Bft)
21.04.2019 05:30 5,7 C 5,7 C 75 % 1028,6 hPa 0,0 l/m 0,0 km/h (0 Bft) S-SW 208 0 min 0 W/m 1,6 C 5,7 C 0,0 km/h (0 Bft)
21.04.2019 05:25 5,8 C 5,8 C 75 % 1028,6 hPa 0,0 l/m 0,0 km/h (0 Bft) S-SW 208 0 min 0 W/m 1,7 C 5,8 C 0,0 km/h (0 Bft)
21.04.2019 05:20 5,8 C 5,8 C 75 % 1028,8 hPa 0,0 l/m 0,0 km/h (0 Bft) S-SW 208 0 min 0 W/m 1,7 C 5,8 C 0,0 km/h (0 Bft)
21.04.2019 05:15 5,9 C 5,9 C 74 % 1028,7 hPa 0,0 l/m 0,0 km/h (0 Bft) S-SW 208 0 min 0 W/m 1,6 C 5,9 C 0,0 km/h (0 Bft)
21.04.2019 05:10 6,1 C 6,1 C 74 % 1028,8 hPa 0,0 l/m 0,0 km/h (0 Bft) S-SW 208 0 min 0 W/m 1,8 C 6,1 C 0,0 km/h (0 Bft)
21.04.2019 05:05 6,2 C 6,2 C 73 % 1028,8 hPa 0,0 l/m 0,0 km/h (0 Bft) S-SW 208 0 min 0 W/m 1,7 C 6,2 C 0,0 km/h (0 Bft)
21.04.2019 05:00 6,3 C 6,3 C 73 % 1028,8 hPa 0,0 l/m 0,0 km/h (0 Bft) S-SW 208 0 min 0 W/m 1,8 C 6,3 C 0,0 km/h (0 Bft)
21.04.2019 04:55 6,4 C 6,4 C 73 % 1028,9 hPa 0,0 l/m 0,0 km/h (0 Bft) S-SW 208 0 min 0 W/m 1,9 C 6,4 C 0,0 km/h (0 Bft)
21.04.2019 04:50 6,4 C 6,4 C 72 % 1028,9 hPa 0,0 l/m 0,0 km/h (0 Bft) S-SW 208 0 min 0 W/m 1,7 C 6,4 C 0,0 km/h (0 Bft)
21.04.2019 04:45 6,6 C 6,6 C 71 % 1029,0 hPa 0,0 l/m 0,8 km/h (0 Bft) S-SW 208 0 min 0 W/m 1,7 C 6,6 C 3,2 km/h (1 Bft)
21.04.2019 04:40 6,7 C 6,7 C 71 % 1029,0 hPa 0,0 l/m 1,2 km/h (1 Bft) S-SW 208 0 min 0 W/m 1,8 C 6,7 C 3,2 km/h (1 Bft)
21.04.2019 04:35 6,8 C 6,8 C 71 % 1029,1 hPa 0,0 l/m 1,2 km/h (1 Bft) S-SW 208 0 min 0 W/m 1,9 C 6,8 C 3,2 km/h (1 Bft)
21.04.2019 04:30 6,9 C 6,9 C 71 % 1029,2 hPa 0,0 l/m 1,2 km/h (1 Bft) S-SW 208 0 min 0 W/m 2,0 C 6,9 C 3,2 km/h (1 Bft)
21.04.2019 04:25 7,1 C 7,1 C 70 % 1029,2 hPa 0,0 l/m 1,9 km/h (1 Bft) S-SW 208 0 min 0 W/m 2,0 C 7,1 C 3,2 km/h (1 Bft)
21.04.2019 04:20 7,2 C 7,2 C 70 % 1029,2 hPa 0,0 l/m 1,9 km/h (1 Bft) S-SW 208 0 min 0 W/m 2,1 C 7,2 C 3,2 km/h (1 Bft)
21.04.2019 04:15 7,3 C 7,3 C 69 % 1029,2 hPa 0,0 l/m 1,6 km/h (1 Bft) S-SW 208 0 min 0 W/m 2,0 C 7,3 C 3,2 km/h (1 Bft)
21.04.2019 04:10 7,6 C 7,6 C 68 % 1029,2 hPa 0,0 l/m 1,8 km/h (1 Bft) S-SW 208 0 min 0 W/m 2,1 C 7,6 C 4,8 km/h (1 Bft)
21.04.2019 04:05 7,8 C 7,8 C 67 % 1029,3 hPa 0,0 l/m 2,0 km/h (1 Bft) S-SW 208 0 min 0 W/m 2,1 C 7,8 C 4,8 km/h (1 Bft)
21.04.2019 04:00 8,1 C 8,1 C 67 % 1029,3 hPa 0,0 l/m 1,9 km/h (1 Bft) S-SW 208 0 min 0 W/m 2,3 C 8,1 C 4,8 km/h (1 Bft)
21.04.2019 03:55 8,2 C 8,2 C 66 % 1029,3 hPa 0,0 l/m 1,5 km/h (1 Bft) S-SW 208 0 min 0 W/m 2,2 C 8,2 C 4,8 km/h (1 Bft)
21.04.2019 03:50 8,3 C 8,3 C 66 % 1029,3 hPa 0,0 l/m 3,1 km/h (1 Bft) S-SW 208 0 min 0 W/m 2,3 C 8,3 C 6,4 km/h (2 Bft)
21.04.2019 03:45 8,3 C 8,3 C 65 % 1029,4 hPa 0,0 l/m 3,3 km/h (1 Bft) S-SW 207 0 min 0 W/m 2,1 C 8,3 C 6,4 km/h (2 Bft)
21.04.2019 03:40 8,4 C 8,4 C 65 % 1029,5 hPa 0,0 l/m 4,3 km/h (1 Bft) S-SW 204 0 min 0 W/m 2,2 C 8,4 C 6,4 km/h (2 Bft)
21.04.2019 03:35 8,6 C 8,6 C 65 % 1029,5 hPa 0,0 l/m 4,0 km/h (1 Bft) S-SW 195 0 min 0 W/m 2,4 C 8,6 C 6,4 km/h (2 Bft)
21.04.2019 03:30 8,7 C 8,7 C 64 % 1029,5 hPa 0,0 l/m 3,6 km/h (1 Bft) S-SW 199 0 min 0 W/m 2,3 C 8,7 C 6,4 km/h (2 Bft)
21.04.2019 03:25 8,8 C 8,8 C 64 % 1029,5 hPa 0,0 l/m 5,4 km/h (1 Bft) S-SW 198 0 min 0 W/m 2,4 C 8,3 C 8,0 km/h (2 Bft)
21.04.2019 03:20 8,8 C 8,8 C 63 % 1029,5 hPa 0,0 l/m 6,1 km/h (2 Bft) S-SW 197 0 min 0 W/m 2,2 C 8,1 C 8,0 km/h (2 Bft)
21.04.2019 03:15 8,8 C 8,8 C 63 % 1029,6 hPa 0,0 l/m 5,5 km/h (1 Bft) S-SW 205 0 min 0 W/m 2,2 C 8,2 C 9,7 km/h (2 Bft)
21.04.2019 03:10 8,8 C 8,7 C 63 % 1029,5 hPa 0,0 l/m 3,8 km/h (1 Bft) S-SW 206 0 min 0 W/m 2,2 C 8,8 C 8,0 km/h (2 Bft)
21.04.2019 03:05 8,7 C 8,6 C 63 % 1029,6 hPa 0,0 l/m 3,4 km/h (1 Bft) S-SW 206 0 min 0 W/m 2,1 C 8,7 C 4,8 km/h (1 Bft)
21.04.2019 03:00 8,6 C 8,6 C 63 % 1029,6 hPa 0,0 l/m 3,1 km/h (1 Bft) S-SW 209 0 min 0 W/m 2,0 C 8,6 C 4,8 km/h (1 Bft)
21.04.2019 02:55 8,6 C 8,6 C 64 % 1029,6 hPa 0,0 l/m 3,4 km/h (1 Bft) S-SW 209 0 min 0 W/m 2,2 C 8,6 C 4,8 km/h (1 Bft)
21.04.2019 02:50 8,7 C 8,7 C 64 % 1029,6 hPa 0,0 l/m 4,0 km/h (1 Bft) S-SW 209 0 min 0 W/m 2,3 C 8,7 C 8,0 km/h (2 Bft)
21.04.2019 02:45 8,7 C 8,7 C 65 % 1029,7 hPa 0,0 l/m 3,9 km/h (1 Bft) S-SW 210 0 min 0 W/m 2,5 C 8,7 C 6,4 km/h (2 Bft)
21.04.2019 02:40 8,9 C 8,9 C 64 % 1029,7 hPa 0,0 l/m 3,1 km/h (1 Bft) S-SW 210 0 min 0 W/m 2,5 C 8,9 C 4,8 km/h (1 Bft)
21.04.2019 02:35 9,1 C 9,1 C 64 % 1029,7 hPa 0,0 l/m 4,2 km/h (1 Bft) S-SW 212 0 min 0 W/m 2,7 C 9,1 C 6,4 km/h (2 Bft)
21.04.2019 02:30 9,2 C 9,2 C 64 % 1029,8 hPa 0,0 l/m 3,1 km/h (1 Bft) SW 214 0 min 0 W/m 2,8 C 9,2 C 4,8 km/h (1 Bft)
21.04.2019 02:25 9,4 C 9,3 C 64 % 1029,8 hPa 0,0 l/m 2,8 km/h (1 Bft) SW 217 0 min 0 W/m 2,9 C 9,4 C 4,8 km/h (1 Bft)
21.04.2019 02:20 9,5 C 9,5 C 63 % 1029,8 hPa 0,0 l/m 1,9 km/h (1 Bft) NW 317 0 min 0 W/m 2,8 C 9,5 C 4,8 km/h (1 Bft)
21.04.2019 02:15 9,6 C 9,6 C 62 % 1029,8 hPa 0,0 l/m 1,2 km/h (1 Bft) NW 317 0 min 0 W/m 2,7 C 9,6 C 3,2 km/h (1 Bft)
21.04.2019 02:10 9,7 C 9,7 C 62 % 1029,8 hPa 0,0 l/m 1,2 km/h (1 Bft) NW 317 0 min 0 W/m 2,8 C 9,7 C 4,8 km/h (1 Bft)
21.04.2019 02:05 9,8 C 9,8 C 61 % 1029,9 hPa 0,0 l/m 1,1 km/h (1 Bft) NW 317 0 min 0 W/m 2,6 C 9,8 C 3,2 km/h (1 Bft)
21.04.2019 02:00 9,9 C 9,9 C 61 % 1030,0 hPa 0,0 l/m 0,8 km/h (0 Bft) NW 317 0 min 0 W/m 2,7 C 9,9 C 3,2 km/h (1 Bft)
21.04.2019 01:55 10,0 C 10,0 C 61 % 1030,0 hPa 0,0 l/m 1,2 km/h (1 Bft) NW 317 0 min 0 W/m 2,8 C 10,0 C 4,8 km/h (1 Bft)
21.04.2019 01:50 10,0 C 10,0 C 60 % 1030,0 hPa 0,0 l/m 0,8 km/h (0 Bft) NW 317 0 min 0 W/m 2,6 C 10,0 C 3,2 km/h (1 Bft)
21.04.2019 01:45 10,0 C 9,9 C 60 % 1030,0 hPa 0,0 l/m 2,0 km/h (1 Bft) NW 317 0 min 0 W/m 2,6 C 10,0 C 4,8 km/h (1 Bft)
21.04.2019 01:40 9,9 C 9,8 C 60 % 1030,0 hPa 0,0 l/m 1,3 km/h (1 Bft) NW 317 0 min 0 W/m 2,5 C 9,9 C 3,2 km/h (1 Bft)
21.04.2019 01:35 9,8 C 9,7 C 59 % 1030,0 hPa 0,0 l/m 2,7 km/h (1 Bft) NW 317 0 min 0 W/m 2,2 C 9,8 C 4,8 km/h (1 Bft)
21.04.2019 01:30 9,7 C 9,6 C 62 % 1029,9 hPa 0,0 l/m 2,2 km/h (1 Bft) NW 317 0 min 0 W/m 2,8 C 9,7 C 4,8 km/h (1 Bft)
21.04.2019 01:25 9,6 C 9,6 C 62 % 1029,9 hPa 0,0 l/m 1,8 km/h (1 Bft) NW 309 0 min 0 W/m 2,7 C 9,6 C 3,2 km/h (1 Bft)
21.04.2019 01:20 9,6 C 9,6 C 63 % 1029,9 hPa 0,0 l/m 1,0 km/h (0 Bft) NW 309 0 min 0 W/m 2,9 C 9,6 C 3,2 km/h (1 Bft)
21.04.2019 01:15 9,6 C 9,5 C 63 % 1030,0 hPa 0,0 l/m 1,5 km/h (1 Bft) NW 309 0 min 0 W/m 2,9 C 9,6 C 4,8 km/h (1 Bft)
21.04.2019 01:10 9,6 C 9,5 C 63 % 1030,1 hPa 0,0 l/m 0,2 km/h (0 Bft) NW 309 0 min 0 W/m 2,9 C 9,6 C 3,2 km/h (1 Bft)
21.04.2019 01:05 9,6 C 9,6 C 63 % 1030,1 hPa 0,0 l/m 0,0 km/h (0 Bft) NW 309 0 min 0 W/m 2,9 C 9,6 C 0,0 km/h (0 Bft)
21.04.2019 01:00 9,6 C 9,6 C 63 % 1030,1 hPa 0,0 l/m 0,6 km/h (0 Bft) NW 309 0 min 0 W/m 2,9 C 9,6 C 1,6 km/h (1 Bft)
21.04.2019 00:55 9,7 C 9,7 C 63 % 1030,2 hPa 0,0 l/m 0,9 km/h (0 Bft) NW 309 0 min 0 W/m 3,0 C 9,7 C 1,6 km/h (1 Bft)
21.04.2019 00:50 9,8 C 9,8 C 63 % 1030,3 hPa 0,0 l/m 1,4 km/h (1 Bft) NW 309 0 min 0 W/m 3,1 C 9,8 C 3,2 km/h (1 Bft)
21.04.2019 00:45 9,9 C 9,9 C 62 % 1030,3 hPa 0,0 l/m 1,2 km/h (1 Bft) NW 309 0 min 0 W/m 3,0 C 9,9 C 3,2 km/h (1 Bft)
21.04.2019 00:40 10,1 C 10,1 C 62 % 1030,3 hPa 0,0 l/m 1,5 km/h (1 Bft) NW 309 0 min 0 W/m 3,2 C 10,1 C 3,2 km/h (1 Bft)
21.04.2019 00:35 10,2 C 10,2 C 61 % 1030,4 hPa 0,0 l/m 1,6 km/h (1 Bft) NW 309 0 min 0 W/m 3,0 C 10,2 C 3,2 km/h (1 Bft)
21.04.2019 00:30 10,3 C 10,3 C 61 % 1030,4 hPa 0,0 l/m 2,0 km/h (1 Bft) NW 309 0 min 0 W/m 3,1 C 10,3 C 4,8 km/h (1 Bft)
21.04.2019 00:25 10,4 C 10,4 C 61 % 1030,5 hPa 0,0 l/m 1,3 km/h (1 Bft) NW 309 0 min 0 W/m 3,2 C 10,4 C 3,2 km/h (1 Bft)
21.04.2019 00:20 10,6 C 10,6 C 60 % 1030,6 hPa 0,0 l/m 0,9 km/h (0 Bft) NW 309 0 min 0 W/m 3,2 C 10,6 C 3,2 km/h (1 Bft)
21.04.2019 00:15 10,7 C 10,7 C 60 % 1030,6 hPa 0,0 l/m 0,6 km/h (0 Bft) NW 309 0 min 0 W/m 3,3 C 10,7 C 3,2 km/h (1 Bft)
21.04.2019 00:10 10,8 C 10,8 C 59 % 1030,7 hPa 0,0 l/m 0,7 km/h (0 Bft) NW 309 0 min 0 W/m 3,1 C 10,8 C 3,2 km/h (1 Bft)
21.04.2019 00:05 10,9 C 10,9 C 58 % 1030,6 hPa 0,0 l/m 0,9 km/h (0 Bft) NW 309 0 min 0 W/m 3,0 C 10,9 C 3,2 km/h (1 Bft)
21.04.2019 00:00 10,9 C 10,9 C 57 % 1030,6 hPa 0,0 l/m 3,1 km/h (1 Bft) NW 309 0 min 0 W/m 2,7 C 10,9 C 6,4 km/h (2 Bft)
_ Min-Zeit 06:50 06:50 14:05 14:40 - 01:05 - - - - 14:05 06:50 01:05
Minimum _ 4,8 C 4,8 C 17 % 1024,5 hPa - 0,0 km/h (0 Bft) - - - - -2,0 C 4,8 C 0,0 km/h (0 Bft)
_ Max-Zeit 13:25 13:25 07:20 00:10 00:00 13:35 - - 00:00 00:00 10:25 12:50 12:05
Maximum _ 25,3 C 25,2 C 79 % 1030,7 hPa 0,0 l/m 12,8 km/h
NO (3 Bft)
- - 0 min 0 W/m 8,0 C 25,2 C 27,4 km/h
O (4 Bft)
Durchschnitt _ 13,4 C 13,3 C 54 % 1028,1 hPa #0,0 l/m 3,4 km/h (1 Bft) S-SW - #0 min. 0 W/m 2,6 C 13,4 C 7,3 km/h (2 Bft)